Redwood City, CA

4:16 AM PDT on October 01, 2016 (GMT -0700)
San Carlos

Weather History for KSQL - April, 2014

Change the Weather History Date:

Tuesday, April 8, 2014

  Actual Average Record
Temperature  
Mean Temperature 70 °F -  
Max Temperature 82 °F 68 °F 92 °F (1989)
Min Temperature 57 °F 43 °F 38 °F (1953)
Cooling Degree Days 4    
Growing Degree Days 20 (Base 50)    
Moisture  
Dew Point 52 °F    
Average Humidity 68    
Maximum Humidity 88    
Minimum Humidity 30    
Precipitation  
Precipitation 0.00 in - - ()
Sea Level Pressure  
Sea Level Pressure 30.07 in    
Wind  
Wind Speed 3 mph (NNW)    
Max Wind Speed 13 mph    
Max Gust Speed -    
Visibility 10 miles    
Events      
Averages and records for this station are not official NWS values.
T = Trace of Precipitation, MM = Missing Value Source: NWS Daily Summary

Daily Weather History Graph

Daily Weather History Graph

Search for Another Location

Airport or City:

Trip Planner

Search our weather history database for the weather conditions in past years. The results will help you decide how hot, cold, wet, or windy it might be!

Date:

Astronomy

Apr. 08, 2014 Rise Set
Actual Time 6:43 AM PDT 7:38 PM PDT
Civil Twilight 6:17 AM PDT 8:04 PM PDT
Nautical Twilight 5:45 AM PDT 8:36 PM PDT
Astronomical Twilight 5:13 AM PDT 9:09 PM PDT
Moon 1:43 PM PDT (4/8) 2:53 AM PDT (4/8)
Length of Visible Light 13h 47m
Length of Day
12h 54m
Waxing Gibbous, 63% of the Moon is Illuminated
Apr 8
Waxing Gibbous
Apr 15
Full
Apr 22
Last Quarter
Apr 28
New
May 6
First Quarter

Hourly Weather History & Observations

Time (PDT) Temp. Heat Index Dew Point Humidity Pressure Visibility Wind Dir Wind Speed Gust Speed Precip Events Conditions
12:15 AM 64.4 °F - 53.6 °F 68% 30.09 in 10.0 mi SE 4.6 mph - N/A   Clear
12:35 AM 64.4 °F - 50.0 °F 59% 30.09 in 10.0 mi Calm Calm - N/A   Clear
12:55 AM 64.4 °F - 50.0 °F 59% 30.09 in 10.0 mi North - - N/A   Clear
1:15 AM 62.6 °F - 53.6 °F 72% 30.09 in 10.0 mi SE 3.5 mph - N/A   Clear
1:35 AM 62.6 °F - 51.8 °F 68% 30.08 in 10.0 mi Calm Calm - N/A   Clear
1:55 AM 62.6 °F - 51.8 °F 68% 30.08 in 10.0 mi Calm Calm - N/A   Clear
2:15 AM 62.6 °F - 51.8 °F 68% 30.08 in 10.0 mi Calm Calm - N/A   Clear
2:35 AM 60.8 °F - 51.8 °F 72% 30.07 in 10.0 mi Calm Calm - N/A   Clear
2:55 AM 60.8 °F - 50.0 °F 68% 30.07 in 10.0 mi Calm Calm - N/A   Clear
3:15 AM 60.8 °F - 50.0 °F 68% 30.07 in 10.0 mi Calm Calm - N/A   Clear
3:35 AM 59.0 °F - 50.0 °F 72% 30.07 in 10.0 mi Calm Calm - N/A   Clear
3:55 AM 59.0 °F - 50.0 °F 72% 30.07 in 10.0 mi Calm Calm - N/A   Clear
4:15 AM 59.0 °F - 50.0 °F 72% 30.07 in 10.0 mi Calm Calm - N/A   Clear
4:35 AM 59.0 °F - 50.0 °F 72% 30.07 in 10.0 mi Calm Calm - N/A   Clear
4:55 AM 59.0 °F - 50.0 °F 72% 30.07 in 10.0 mi Calm Calm - N/A   Clear
5:15 AM 59.0 °F - 50.0 °F 72% 30.07 in 10.0 mi NW 3.5 mph - N/A   Clear
5:35 AM 59.0 °F - 51.8 °F 77% 30.07 in 10.0 mi NW 4.6 mph - N/A   Clear
5:55 AM 57.2 °F - 51.8 °F 82% 30.08 in 10.0 mi NW 3.5 mph - N/A   Clear
6:15 AM 57.2 °F - 51.8 °F 82% 30.08 in 10.0 mi Calm Calm - N/A   Clear
6:35 AM 57.2 °F - 51.8 °F 82% 30.08 in 10.0 mi NW 3.5 mph - N/A   Clear
6:51 AM 59.0 °F - 51.8 °F 77% 30.09 in 10.0 mi Calm Calm - N/A   Scattered Clouds
6:55 AM 59.0 °F - 51.8 °F 77% 30.09 in 10.0 mi Calm Calm - N/A   Clear
7:47 AM 59.0 °F - 51.8 °F 77% 30.11 in 10.0 mi Variable 3.5 mph - N/A   Scattered Clouds
8:47 AM 62.6 °F - 53.6 °F 72% 30.11 in 10.0 mi Calm Calm - N/A   Scattered Clouds
9:52 AM 64.4 °F - 57.2 °F 77% 30.12 in 10.0 mi ENE 3.5 mph - N/A   Scattered Clouds
10:53 AM 68.0 °F - 59.0 °F 73% 30.11 in 10.0 mi Calm Calm - N/A   Scattered Clouds
11:50 AM 71.6 °F - 57.2 °F 60% 30.10 in 10.0 mi Calm Calm - N/A   Scattered Clouds
12:51 PM 75.2 °F - 59.0 °F 57% 30.09 in 10.0 mi NE 5.8 mph - N/A   Mostly Cloudy
1:52 PM 77.0 °F - 55.4 °F 47% 30.07 in 10.0 mi NNE 3.5 mph - N/A   Mostly Cloudy
2:47 PM 80.6 °F 80.5 °F 55.4 °F 42% 30.05 in 10.0 mi North 10.4 mph - N/A   Mostly Cloudy
3:51 PM 82.4 °F - 48.2 °F 30% 30.03 in 10.0 mi WNW 12.7 mph - N/A   Mostly Cloudy
4:47 PM 78.8 °F - 51.8 °F 39% 30.02 in 10.0 mi NW 12.7 mph - N/A   Mostly Cloudy
5:59 PM 77.0 °F - 50.0 °F 39% 30.02 in 10.0 mi West 10.4 mph - N/A   Mostly Cloudy
6:50 PM 73.4 °F - 46.4 °F 38% 30.02 in 10.0 mi WNW 11.5 mph - N/A   Mostly Cloudy
7:53 PM 68.0 °F - 50.0 °F 52% 30.03 in 10.0 mi NW 8.1 mph - N/A   Mostly Cloudy
8:47 PM 62.6 °F - 53.6 °F 72% 30.05 in 10.0 mi NNW 5.8 mph - N/A   Clear
9:15 PM 62.6 °F - 51.8 °F 68% 30.06 in 10.0 mi NW 4.6 mph - N/A   Clear
9:35 PM 62.6 °F - 50.0 °F 63% 30.07 in 10.0 mi NNW 3.5 mph - N/A   Clear
9:55 PM 62.6 °F - 50.0 °F 63% 30.07 in 10.0 mi Calm Calm - N/A   Clear
10:15 PM 62.6 °F - 53.6 °F 72% 30.07 in 10.0 mi North 3.5 mph - N/A   Clear
10:35 PM 60.8 °F - 55.4 °F 82% 30.07 in 10.0 mi East 3.5 mph - N/A   Clear
10:55 PM 60.8 °F - 55.4 °F 82% 30.07 in 10.0 mi SE 4.6 mph - N/A   Clear
11:15 PM 59.0 °F - 55.4 °F 88% 30.07 in 10.0 mi SE 3.5 mph - N/A   Clear
11:35 PM 59.0 °F - 55.4 °F 88% 30.07 in 10.0 mi Calm Calm - N/A   Clear
11:55 PM 59.0 °F - 55.4 °F 88% 30.07 in 10.0 mi Calm Calm - N/A   Clear